www.cux-wetter.de
Wetterdaten: Samstag, 20.09.2008
Datum Zeit Temp. A. Feuchte A. Luftdruck Regen Wind Richtung Richtung Sonnenschein Solar Taupunkt Windchill Windben
20.09.2008 00:00 10,0 C 82 % 1029,5 hPa 0,0 l/m 0,0 km/h (0 Bft) N-NO 25 0 min 0 W/m 7,1 C 10,0 C 0,0 km/h (0 Bft)
20.09.2008 00:05 9,9 C 82 % 1029,5 hPa 0,0 l/m 0,0 km/h (0 Bft) N-NO 25 0 min 0 W/m 7,0 C 9,9 C 0,0 km/h (0 Bft)
20.09.2008 00:10 9,9 C 82 % 1029,5 hPa 0,0 l/m 0,0 km/h (0 Bft) N-NO 25 0 min 0 W/m 7,0 C 9,9 C 0,0 km/h (0 Bft)
20.09.2008 00:15 9,9 C 82 % 1029,5 hPa 0,0 l/m 0,0 km/h (0 Bft) N-NO 25 0 min 0 W/m 7,0 C 9,9 C 0,0 km/h (0 Bft)
20.09.2008 00:20 9,9 C 82 % 1029,5 hPa 0,0 l/m 0,0 km/h (0 Bft) N-NO 25 0 min 0 W/m 7,0 C 9,9 C 0,0 km/h (0 Bft)
20.09.2008 00:25 10,0 C 83 % 1029,5 hPa 0,0 l/m 0,0 km/h (0 Bft) N-NO 25 0 min 0 W/m 7,2 C 10,0 C 0,0 km/h (0 Bft)
20.09.2008 00:30 10,1 C 83 % 1029,5 hPa 0,0 l/m 0,0 km/h (0 Bft) N-NO 25 0 min 0 W/m 7,3 C 10,1 C 0,0 km/h (0 Bft)
20.09.2008 00:35 10,1 C 83 % 1029,5 hPa 0,0 l/m 0,0 km/h (0 Bft) N-NO 25 0 min 0 W/m 7,3 C 10,1 C 0,0 km/h (0 Bft)
20.09.2008 00:40 10,0 C 83 % 1029,5 hPa 0,0 l/m 0,0 km/h (0 Bft) N-NO 25 0 min 0 W/m 7,2 C 10,0 C 0,0 km/h (0 Bft)
20.09.2008 00:45 10,0 C 82 % 1029,5 hPa 0,0 l/m 0,0 km/h (0 Bft) N-NO 25 0 min 0 W/m 7,1 C 10,0 C 0,0 km/h (0 Bft)
20.09.2008 00:50 10,0 C 82 % 1029,5 hPa 0,0 l/m 0,0 km/h (0 Bft) N-NO 25 0 min 0 W/m 7,1 C 10,0 C 0,0 km/h (0 Bft)
20.09.2008 00:55 9,9 C 82 % 1029,5 hPa 0,0 l/m 0,0 km/h (0 Bft) N-NO 25 0 min 0 W/m 7,0 C 9,9 C 0,0 km/h (0 Bft)
20.09.2008 01:00 9,9 C 82 % 1029,5 hPa 0,0 l/m 0,0 km/h (0 Bft) N-NO 25 0 min 0 W/m 7,0 C 9,9 C 0,0 km/h (0 Bft)
20.09.2008 01:05 9,8 C 82 % 1029,5 hPa 0,0 l/m 0,0 km/h (0 Bft) N-NO 25 0 min 0 W/m 6,9 C 9,8 C 0,0 km/h (0 Bft)
20.09.2008 01:10 9,8 C 82 % 1029,5 hPa 0,0 l/m 0,0 km/h (0 Bft) N-NO 25 0 min 0 W/m 6,9 C 9,8 C 0,0 km/h (0 Bft)
20.09.2008 01:15 9,9 C 82 % 1029,5 hPa 0,0 l/m 0,0 km/h (0 Bft) N-NO 25 0 min 0 W/m 7,0 C 9,9 C 0,0 km/h (0 Bft)
20.09.2008 01:20 9,9 C 82 % 1029,5 hPa 0,0 l/m 0,0 km/h (0 Bft) N-NO 25 0 min 0 W/m 7,0 C 9,9 C 0,0 km/h (0 Bft)
20.09.2008 01:25 9,9 C 82 % 1029,5 hPa 0,0 l/m 0,0 km/h (0 Bft) N-NO 25 0 min 0 W/m 7,0 C 9,9 C 0,0 km/h (0 Bft)
20.09.2008 01:29 9,7 C 81 % 1029,5 hPa 0,0 l/m 0,0 km/h (0 Bft) N-NO 25 0 min 0 W/m 6,6 C 9,7 C 0,0 km/h (0 Bft)
20.09.2008 01:35 9,6 C 81 % 1029,5 hPa 0,0 l/m 0,0 km/h (0 Bft) N-NO 25 0 min 0 W/m 6,5 C 9,6 C 0,0 km/h (0 Bft)
20.09.2008 01:40 9,6 C 81 % 1029,5 hPa 0,0 l/m 0,0 km/h (0 Bft) N-NO 25 0 min 0 W/m 6,5 C 9,6 C 0,0 km/h (0 Bft)
20.09.2008 01:45 9,6 C 81 % 1029,5 hPa 0,0 l/m 0,0 km/h (0 Bft) N-NO 25 0 min 0 W/m 6,5 C 9,6 C 0,0 km/h (0 Bft)
20.09.2008 01:50 9,4 C 81 % 1029,5 hPa 0,0 l/m 0,0 km/h (0 Bft) N-NO 25 0 min 0 W/m 6,3 C 9,4 C 0,0 km/h (0 Bft)
20.09.2008 01:55 9,4 C 81 % 1029,5 hPa 0,0 l/m 0,0 km/h (0 Bft) N-NO 25 0 min 0 W/m 6,3 C 9,4 C 0,0 km/h (0 Bft)
20.09.2008 02:00 9,2 C 81 % 1029,5 hPa 0,0 l/m 0,0 km/h (0 Bft) N-NO 25 0 min 0 W/m 6,1 C 9,2 C 0,0 km/h (0 Bft)
20.09.2008 02:05 9,2 C 82 % 1029,5 hPa 0,0 l/m 0,0 km/h (0 Bft) N-NO 25 0 min 0 W/m 6,3 C 9,2 C 0,0 km/h (0 Bft)
20.09.2008 02:10 9,2 C 81 % 1029,5 hPa 0,0 l/m 0,0 km/h (0 Bft) N-NO 25 0 min 0 W/m 6,1 C 9,2 C 0,0 km/h (0 Bft)
20.09.2008 02:15 9,1 C 81 % 1029,5 hPa 0,0 l/m 0,0 km/h (0 Bft) N-NO 25 0 min 0 W/m 6,0 C 9,1 C 0,0 km/h (0 Bft)
20.09.2008 02:20 8,9 C 81 % 1029,5 hPa 0,0 l/m 0,0 km/h (0 Bft) N-NO 25 0 min 0 W/m 5,8 C 8,9 C 0,0 km/h (0 Bft)
20.09.2008 02:25 8,8 C 81 % 1029,5 hPa 0,0 l/m 0,0 km/h (0 Bft) N-NO 25 0 min 0 W/m 5,7 C 8,8 C 0,0 km/h (0 Bft)
20.09.2008 02:30 8,7 C 81 % 1029,5 hPa 0,0 l/m 0,0 km/h (0 Bft) N-NO 25 0 min 0 W/m 5,6 C 8,7 C 0,0 km/h (0 Bft)
20.09.2008 02:35 8,5 C 82 % 1029,5 hPa 0,0 l/m 0,0 km/h (0 Bft) N-NO 25 0 min 0 W/m 5,6 C 8,5 C 0,0 km/h (0 Bft)
20.09.2008 02:40 8,4 C 82 % 1029,5 hPa 0,0 l/m 0,0 km/h (0 Bft) N-NO 25 0 min 0 W/m 5,5 C 8,4 C 0,0 km/h (0 Bft)
20.09.2008 02:45 8,3 C 82 % 1029,5 hPa 0,0 l/m 0,0 km/h (0 Bft) N-NO 25 0 min 0 W/m 5,4 C 8,3 C 0,0 km/h (0 Bft)
20.09.2008 02:50 8,3 C 83 % 1029,5 hPa 0,0 l/m 0,0 km/h (0 Bft) N-NO 25 0 min 0 W/m 5,6 C 8,3 C 0,0 km/h (0 Bft)
20.09.2008 02:55 8,2 C 83 % 1029,5 hPa 0,0 l/m 0,0 km/h (0 Bft) N-NO 25 0 min 0 W/m 5,5 C 8,2 C 0,0 km/h (0 Bft)
20.09.2008 03:00 8,2 C 83 % 1029,5 hPa 0,0 l/m 0,0 km/h (0 Bft) N-NO 25 0 min 0 W/m 5,5 C 8,2 C 0,0 km/h (0 Bft)
20.09.2008 03:05 8,1 C 84 % 1029,5 hPa 0,0 l/m 0,0 km/h (0 Bft) N-NO 25 0 min 0 W/m 5,6 C 8,1 C 0,0 km/h (0 Bft)
20.09.2008 03:10 8,1 C 84 % 1029,5 hPa 0,0 l/m 0,0 km/h (0 Bft) N-NO 25 0 min 0 W/m 5,6 C 8,1 C 0,0 km/h (0 Bft)
20.09.2008 03:15 8,2 C 84 % 1029,5 hPa 0,0 l/m 0,0 km/h (0 Bft) N-NO 25 0 min 0 W/m 5,7 C 8,2 C 0,0 km/h (0 Bft)
20.09.2008 03:20 8,2 C 84 % 1029,5 hPa 0,0 l/m 0,0 km/h (0 Bft) N-NO 25 0 min 0 W/m 5,7 C 8,2 C 0,0 km/h (0 Bft)
20.09.2008 03:25 8,4 C 85 % 1029,5 hPa 0,0 l/m 0,0 km/h (0 Bft) N-NO 25 0 min 0 W/m 6,0 C 8,4 C 0,0 km/h (0 Bft)
20.09.2008 03:30 8,6 C 84 % 1029,5 hPa 0,0 l/m 0,0 km/h (0 Bft) N-NO 25 0 min 0 W/m 6,1 C 8,6 C 0,0 km/h (0 Bft)
20.09.2008 03:35 8,6 C 84 % 1029,5 hPa 0,0 l/m 0,0 km/h (0 Bft) N-NO 25 0 min 0 W/m 6,1 C 8,6 C 0,0 km/h (0 Bft)
20.09.2008 03:40 8,4 C 83 % 1029,5 hPa 0,0 l/m 0,0 km/h (0 Bft) N-NO 25 0 min 0 W/m 5,7 C 8,4 C 0,0 km/h (0 Bft)
20.09.2008 03:45 8,1 C 83 % 1029,5 hPa 0,0 l/m 0,0 km/h (0 Bft) N-NO 25 0 min 0 W/m 5,4 C 8,1 C 0,0 km/h (0 Bft)
20.09.2008 03:50 8,1 C 83 % 1029,5 hPa 0,0 l/m 0,0 km/h (0 Bft) N-NO 25 0 min 0 W/m 5,4 C 8,1 C 0,0 km/h (0 Bft)
20.09.2008 03:55 8,0 C 83 % 1029,5 hPa 0,0 l/m 0,0 km/h (0 Bft) N-NO 25 0 min 0 W/m 5,3 C 8,0 C 0,0 km/h (0 Bft)
20.09.2008 03:59 8,1 C 84 % 1029,5 hPa 0,0 l/m 0,0 km/h (0 Bft) N-NO 25 0 min 0 W/m 5,6 C 8,1 C 0,0 km/h (0 Bft)
20.09.2008 04:05 8,4 C 84 % 1029,5 hPa 0,0 l/m 0,0 km/h (0 Bft) N-NO 25 0 min 0 W/m 5,9 C 8,4 C 0,0 km/h (0 Bft)
20.09.2008 04:10 8,4 C 84 % 1029,5 hPa 0,0 l/m 0,0 km/h (0 Bft) N-NO 25 0 min 0 W/m 5,9 C 8,4 C 0,0 km/h (0 Bft)
20.09.2008 04:15 8,5 C 83 % 1029,5 hPa 0,0 l/m 0,0 km/h (0 Bft) N-NO 25 0 min 0 W/m 5,8 C 8,5 C 0,0 km/h (0 Bft)
20.09.2008 04:20 8,5 C 83 % 1029,5 hPa 0,0 l/m 0,0 km/h (0 Bft) N-NO 25 0 min 0 W/m 5,8 C 8,5 C 0,0 km/h (0 Bft)
20.09.2008 04:25 8,5 C 83 % 1029,5 hPa 0,0 l/m 0,0 km/h (0 Bft) N-NO 25 0 min 0 W/m 5,8 C 8,5 C 0,0 km/h (0 Bft)
20.09.2008 04:30 8,1 C 82 % 1029,5 hPa 0,0 l/m 0,0 km/h (0 Bft) N-NO 25 0 min 0 W/m 5,2 C 8,1 C 0,0 km/h (0 Bft)
20.09.2008 04:35 7,9 C 83 % 1029,5 hPa 0,0 l/m 0,0 km/h (0 Bft) N-NO 25 0 min 0 W/m 5,2 C 7,9 C 0,0 km/h (0 Bft)
20.09.2008 04:40 7,8 C 83 % 1029,5 hPa 0,0 l/m 0,0 km/h (0 Bft) N-NO 25 0 min 0 W/m 5,1 C 7,8 C 0,0 km/h (0 Bft)
20.09.2008 04:45 7,8 C 84 % 1029,5 hPa 0,0 l/m 0,0 km/h (0 Bft) N-NO 25 0 min 0 W/m 5,3 C 7,8 C 0,0 km/h (0 Bft)
20.09.2008 04:50 7,8 C 84 % 1029,5 hPa 0,0 l/m 0,0 km/h (0 Bft) N-NO 25 0 min 0 W/m 5,3 C 7,8 C 0,0 km/h (0 Bft)
20.09.2008 04:55 7,7 C 84 % 1029,5 hPa 0,0 l/m 0,0 km/h (0 Bft) N-NO 25 0 min 0 W/m 5,2 C 7,7 C 0,0 km/h (0 Bft)
20.09.2008 05:00 7,7 C 84 % 1029,5 hPa 0,0 l/m 0,0 km/h (0 Bft) N-NO 25 0 min 0 W/m 5,2 C 7,7 C 0,0 km/h (0 Bft)
20.09.2008 05:05 7,7 C 84 % 1029,5 hPa 0,0 l/m 0,0 km/h (0 Bft) N-NO 25 0 min 0 W/m 5,2 C 7,7 C 0,0 km/h (0 Bft)
20.09.2008 05:10 7,7 C 84 % 1029,5 hPa 0,0 l/m 0,0 km/h (0 Bft) N-NO 25 0 min 0 W/m 5,2 C 7,7 C 0,0 km/h (0 Bft)
20.09.2008 05:15 7,7 C 84 % 1029,5 hPa 0,0 l/m 0,0 km/h (0 Bft) N-NO 25 0 min 0 W/m 5,2 C 7,7 C 0,0 km/h (0 Bft)
20.09.2008 05:20 7,4 C 83 % 1029,5 hPa 0,0 l/m 0,0 km/h (0 Bft) N-NO 25 0 min 0 W/m 4,7 C 7,4 C 0,0 km/h (0 Bft)
20.09.2008 05:25 7,2 C 83 % 1029,5 hPa 0,0 l/m 0,0 km/h (0 Bft) N-NO 25 0 min 0 W/m 4,5 C 7,2 C 0,0 km/h (0 Bft)
20.09.2008 05:30 6,7 C 83 % 1029,5 hPa 0,0 l/m 0,0 km/h (0 Bft) N-NO 25 0 min 0 W/m 4,0 C 6,7 C 0,0 km/h (0 Bft)
20.09.2008 05:34 6,4 C 83 % 1029,5 hPa 0,0 l/m 0,0 km/h (0 Bft) N-NO 25 0 min 0 W/m 3,7 C 6,4 C 0,0 km/h (0 Bft)
20.09.2008 05:40 6,2 C 84 % 1029,5 hPa 0,0 l/m 0,0 km/h (0 Bft) N-NO 25 0 min 0 W/m 3,7 C 6,2 C 0,0 km/h (0 Bft)
20.09.2008 05:45 6,1 C 84 % 1029,5 hPa 0,0 l/m 0,0 km/h (0 Bft) N-NO 25 0 min 0 W/m 3,6 C 6,1 C 0,0 km/h (0 Bft)
20.09.2008 05:50 6,0 C 84 % 1029,5 hPa 0,0 l/m 0,0 km/h (0 Bft) N-NO 25 0 min 0 W/m 3,5 C 6,0 C 0,0 km/h (0 Bft)
20.09.2008 05:55 5,9 C 85 % 1029,5 hPa 0,0 l/m 0,0 km/h (0 Bft) N-NO 25 0 min 0 W/m 3,6 C 5,9 C 0,0 km/h (0 Bft)
20.09.2008 06:00 5,9 C 85 % 1029,5 hPa 0,0 l/m 0,0 km/h (0 Bft) N-NO 25 0 min 0 W/m 3,6 C 5,9 C 0,0 km/h (0 Bft)
20.09.2008 06:05 5,8 C 85 % 1029,5 hPa 0,0 l/m 0,0 km/h (0 Bft) N-NO 25 0 min 0 W/m 3,5 C 5,8 C 0,0 km/h (0 Bft)
20.09.2008 06:10 5,7 C 85 % 1029,5 hPa 0,0 l/m 0,0 km/h (0 Bft) N-NO 25 0 min 0 W/m 3,4 C 5,7 C 0,0 km/h (0 Bft)
20.09.2008 06:15 5,6 C 85 % 1029,5 hPa 0,0 l/m 0,0 km/h (0 Bft) N-NO 25 0 min 0 W/m 3,3 C 5,6 C 0,0 km/h (0 Bft)
20.09.2008 06:20 5,6 C 85 % 1029,5 hPa 0,0 l/m 0,0 km/h (0 Bft) N-NO 25 0 min 0 W/m 3,3 C 5,6 C 0,0 km/h (0 Bft)
20.09.2008 06:25 5,6 C 86 % 1029,5 hPa 0,0 l/m 0,0 km/h (0 Bft) N-NO 25 0 min 0 W/m 3,4 C 5,6 C 0,0 km/h (0 Bft)
20.09.2008 06:30 5,5 C 86 % 1029,5 hPa 0,0 l/m 0,0 km/h (0 Bft) N-NO 25 0 min 0 W/m 3,3 C 5,5 C 0,0 km/h (0 Bft)
20.09.2008 06:35 5,5 C 86 % 1029,5 hPa 0,0 l/m 0,0 km/h (0 Bft) N-NO 25 0 min 0 W/m 3,3 C 5,5 C 0,0 km/h (0 Bft)
20.09.2008 06:39 5,5 C 86 % 1029,5 hPa 0,0 l/m 0,0 km/h (0 Bft) N-NO 25 0 min 0 W/m 3,3 C 5,5 C 0,0 km/h (0 Bft)
20.09.2008 06:45 5,5 C 86 % 1029,5 hPa 0,0 l/m 0,0 km/h (0 Bft) N-NO 25 0 min 0 W/m 3,3 C 5,5 C 0,0 km/h (0 Bft)
20.09.2008 06:50 5,5 C 86 % 1029,5 hPa 0,0 l/m 0,0 km/h (0 Bft) N-NO 25 0 min 0 W/m 3,3 C 5,5 C 0,0 km/h (0 Bft)
20.09.2008 06:55 5,4 C 86 % 1029,5 hPa 0,0 l/m 0,0 km/h (0 Bft) N-NO 25 0 min 0 W/m 3,3 C 5,4 C 0,0 km/h (0 Bft)
20.09.2008 07:00 5,4 C 87 % 1029,5 hPa 0,0 l/m 0,0 km/h (0 Bft) N-NO 25 0 min 0 W/m 3,4 C 5,4 C 0,0 km/h (0 Bft)
20.09.2008 07:05 5,5 C 87 % 1029,5 hPa 0,0 l/m 0,0 km/h (0 Bft) N-NO 25 0 min 0 W/m 3,5 C 5,5 C 0,0 km/h (0 Bft)
20.09.2008 07:10 5,5 C 87 % 1029,5 hPa 0,0 l/m 0,3 km/h (0 Bft) N 360 0 min 0 W/m 3,5 C 5,5 C 0,3 km/h (0 Bft)
20.09.2008 07:15 5,5 C 87 % 1029,5 hPa 0,0 l/m 0,1 km/h (0 Bft) S-SW 210 0 min 0 W/m 3,5 C 5,5 C 0,1 km/h (0 Bft)
20.09.2008 07:20 5,5 C 87 % 1029,5 hPa 0,0 l/m 0,1 km/h (0 Bft) S-SW 210 0 min 0 W/m 3,5 C 5,5 C 0,1 km/h (0 Bft)
20.09.2008 07:25 5,6 C 87 % 1029,5 hPa 0,0 l/m 0,3 km/h (0 Bft) S-SW 210 0 min 0 W/m 3,6 C 5,6 C 0,3 km/h (0 Bft)
20.09.2008 07:30 5,6 C 87 % 1029,5 hPa 0,0 l/m 0,0 km/h (0 Bft) S-SW 210 0 min 0 W/m 3,6 C 5,6 C 0,0 km/h (0 Bft)
20.09.2008 07:35 5,6 C 88 % 1029,5 hPa 0,0 l/m 0,0 km/h (0 Bft) S-SW 210 0 min 0 W/m 3,8 C 5,6 C 0,0 km/h (0 Bft)
20.09.2008 07:40 5,7 C 88 % 1029,5 hPa 0,0 l/m 0,0 km/h (0 Bft) S-SW 210 0 min 0 W/m 3,9 C 5,7 C 0,0 km/h (0 Bft)
20.09.2008 07:44 5,8 C 88 % 1029,5 hPa 0,0 l/m 0,0 km/h (0 Bft) S-SW 210 0 min 0 W/m 4,0 C 5,8 C 0,0 km/h (0 Bft)
20.09.2008 07:50 5,8 C 88 % 1029,5 hPa 0,0 l/m 0,0 km/h (0 Bft) S-SW 210 0 min 0 W/m 4,0 C 5,8 C 0,0 km/h (0 Bft)
20.09.2008 07:55 5,9 C 88 % 1029,5 hPa 0,0 l/m 0,0 km/h (0 Bft) S-SW 210 0 min 0 W/m 4,1 C 5,9 C 0,0 km/h (0 Bft)
20.09.2008 08:00 5,9 C 88 % 1030,5 hPa 0,0 l/m 0,0 km/h (0 Bft) S-SW 210 0 min 0 W/m 4,1 C 5,9 C 0,0 km/h (0 Bft)
20.09.2008 08:05 6,0 C 88 % 1030,5 hPa 0,0 l/m 0,0 km/h (0 Bft) S-SW 205 0 min 0 W/m 4,2 C 6,0 C 0,0 km/h (0 Bft)
20.09.2008 08:10 7,8 C 92 % 1030,5 hPa 0,0 l/m 0,0 km/h (0 Bft) S-SW 210 0 min 0 W/m 6,6 C 7,8 C 0,0 km/h (0 Bft)
20.09.2008 08:15 8,9 C 92 % 1030,5 hPa 0,0 l/m 0,0 km/h (0 Bft) S-SW 210 0 min 0 W/m 7,7 C 8,9 C 0,0 km/h (0 Bft)
20.09.2008 08:20 9,8 C 90 % 1030,5 hPa 0,0 l/m 0,0 km/h (0 Bft) S-SW 210 0 min 0 W/m 8,2 C 9,8 C 0,0 km/h (0 Bft)
20.09.2008 08:25 10,3 C 87 % 1030,5 hPa 0,0 l/m 0,0 km/h (0 Bft) S-SW 210 0 min 0 W/m 8,2 C 10,3 C 0,0 km/h (0 Bft)
20.09.2008 08:30 10,5 C 86 % 1030,5 hPa 0,0 l/m 0,0 km/h (0 Bft) S-SW 210 0 min 0 W/m 8,3 C 10,5 C 0,0 km/h (0 Bft)
20.09.2008 08:35 10,5 C 83 % 1030,5 hPa 0,0 l/m 0,0 km/h (0 Bft) S-SW 210 0 min 0 W/m 7,7 C 10,5 C 0,0 km/h (0 Bft)
20.09.2008 08:40 10,4 C 83 % 1030,5 hPa 0,0 l/m 0,0 km/h (0 Bft) S-SW 210 0 min 0 W/m 7,6 C 10,4 C 0,0 km/h (0 Bft)
20.09.2008 08:45 10,3 C 84 % 1030,5 hPa 0,0 l/m 0,0 km/h (0 Bft) S-SW 210 0 min 0 W/m 7,7 C 10,3 C 0,0 km/h (0 Bft)
20.09.2008 08:50 11,2 C 85 % 1030,5 hPa 0,0 l/m 0,0 km/h (0 Bft) S-SW 205 0 min 0 W/m 8,8 C 11,2 C 0,0 km/h (0 Bft)
20.09.2008 08:55 11,3 C 83 % 1030,5 hPa 0,0 l/m 0,1 km/h (0 Bft) S-SW 205 0 min 0 W/m 8,5 C 11,3 C 0,1 km/h (0 Bft)
20.09.2008 09:00 11,2 C 83 % 1030,5 hPa 0,0 l/m 0,0 km/h (0 Bft) S-SW 205 0 min 0 W/m 8,4 C 11,2 C 0,0 km/h (0 Bft)
20.09.2008 09:05 11,1 C 83 % 1030,5 hPa 0,0 l/m 0,5 km/h (0 Bft) S-SW 205 0 min 0 W/m 8,3 C 11,1 C 0,5 km/h (0 Bft)
20.09.2008 09:09 11,1 C 83 % 1030,5 hPa 0,0 l/m 0,3 km/h (0 Bft) S-SW 205 0 min 0 W/m 8,3 C 11,1 C 0,3 km/h (0 Bft)
20.09.2008 09:15 10,8 C 83 % 1030,5 hPa 0,0 l/m 3,3 km/h (1 Bft) S-SW 205 0 min 0 W/m 8,0 C 10,8 C 3,3 km/h (1 Bft)
20.09.2008 09:20 10,8 C 83 % 1030,5 hPa 0,0 l/m 0,3 km/h (0 Bft) SW 215 0 min 0 W/m 8,0 C 10,8 C 0,3 km/h (0 Bft)
20.09.2008 09:25 10,6 C 85 % 1030,5 hPa 0,0 l/m 4,8 km/h (1 Bft) W 265 0 min 0 W/m 8,2 C 10,6 C 4,8 km/h (1 Bft)
20.09.2008 09:30 11,0 C 88 % 1030,5 hPa 0,0 l/m 5,7 km/h (2 Bft) W 265 0 min 0 W/m 9,1 C 11,0 C 5,7 km/h (2 Bft)
20.09.2008 09:35 11,2 C 89 % 1030,5 hPa 0,0 l/m 5,9 km/h (2 Bft) W 260 0 min 0 W/m 9,5 C 11,2 C 5,9 km/h (2 Bft)
20.09.2008 09:40 11,4 C 89 % 1030,5 hPa 0,0 l/m 8,1 km/h (2 Bft) W-SW 255 0 min 0 W/m 9,7 C 10,3 C 8,1 km/h (2 Bft)
20.09.2008 09:45 11,7 C 89 % 1030,5 hPa 0,0 l/m 6,7 km/h (2 Bft) W 260 0 min 0 W/m 9,9 C 11,5 C 6,7 km/h (2 Bft)
20.09.2008 09:50 11,8 C 89 % 1030,5 hPa 0,0 l/m 5,6 km/h (2 Bft) W-SW 255 0 min 0 W/m 10,0 C 11,8 C 5,6 km/h (2 Bft)
20.09.2008 09:55 12,1 C 89 % 1030,5 hPa 0,0 l/m 7,0 km/h (2 Bft) W-SW 255 0 min 0 W/m 10,3 C 11,7 C 7,0 km/h (2 Bft)
20.09.2008 10:00 12,4 C 88 % 1030,5 hPa 0,0 l/m 9,0 km/h (2 Bft) W 260 0 min 0 W/m 10,5 C 10,8 C 9,0 km/h (2 Bft)
20.09.2008 10:05 12,6 C 86 % 1030,5 hPa 0,0 l/m 10,6 km/h (2 Bft) W 265 0 min 0 W/m 10,3 C 10,2 C 10,6 km/h (2 Bft)
20.09.2008 10:10 12,7 C 86 % 1030,5 hPa 0,0 l/m 9,9 km/h (2 Bft) W-NW 285 0 min 0 W/m 10,4 C 10,6 C 9,9 km/h (2 Bft)
20.09.2008 10:15 12,9 C 83 % 1030,5 hPa 0,0 l/m 11,5 km/h (2 Bft) W 260 0 min 0 W/m 10,1 C 10,1 C 11,5 km/h (2 Bft)
20.09.2008 10:20 13,1 C 83 % 1030,5 hPa 0,0 l/m 10,7 km/h (2 Bft) W 265 0 min 0 W/m 10,3 C 10,7 C 10,7 km/h (2 Bft)
20.09.2008 10:25 13,2 C 81 % 1030,5 hPa 0,0 l/m 10,6 km/h (2 Bft) W 265 0 min 0 W/m 10,0 C 10,8 C 10,6 km/h (2 Bft)
20.09.2008 10:30 13,4 C 79 % 1030,5 hPa 0,0 l/m 12,1 km/h (2 Bft) W 260 0 min 0 W/m 9,8 C 10,4 C 12,1 km/h (2 Bft)
20.09.2008 10:35 13,8 C 79 % 1030,5 hPa 0,0 l/m 9,8 km/h (2 Bft) W 260 0 min 0 W/m 10,2 C 11,9 C 9,8 km/h (2 Bft)
20.09.2008 10:40 14,0 C 78 % 1030,5 hPa 0,0 l/m 12,8 km/h (3 Bft) W 275 0 min 0 W/m 10,2 C 10,8 C 12,8 km/h (3 Bft)
20.09.2008 10:45 14,5 C 76 % 1030,5 hPa 0,0 l/m 13,1 km/h (3 Bft) W 260 0 min 0 W/m 10,3 C 11,3 C 13,1 km/h (3 Bft)
20.09.2008 10:50 15,0 C 76 % 1030,5 hPa 0,0 l/m 11,5 km/h (2 Bft) W 270 0 min 0 W/m 10,8 C 12,5 C 11,5 km/h (2 Bft)
20.09.2008 10:55 15,3 C 76 % 1030,5 hPa 0,0 l/m 10,3 km/h (2 Bft) W-NW 285 0 min 0 W/m 11,1 C 13,3 C 10,3 km/h (2 Bft)
20.09.2008 10:59 15,5 C 75 % 1030,5 hPa 0,0 l/m 8,5 km/h (2 Bft) NW 305 0 min 0 W/m 11,1 C 14,4 C 8,5 km/h (2 Bft)
20.09.2008 11:05 16,0 C 72 % 1030,5 hPa 0,0 l/m 9,6 km/h (2 Bft) W-NW 290 0 min 0 W/m 11,0 C 14,4 C 9,6 km/h (2 Bft)
20.09.2008 11:10 16,4 C 69 % 1031,5 hPa 0,0 l/m 10,3 km/h (2 Bft) W-NW 300 0 min 0 W/m 10,7 C 14,5 C 10,3 km/h (2 Bft)
20.09.2008 11:15 16,4 C 67 % 1031,5 hPa 0,0 l/m 15,0 km/h (3 Bft) W-NW 290 0 min 0 W/m 10,3 C 12,9 C 15,0 km/h (3 Bft)
20.09.2008 11:20 16,4 C 68 % 1031,5 hPa 0,0 l/m 12,5 km/h (2 Bft) W-NW 295 0 min 0 W/m 10,5 C 13,7 C 12,5 km/h (2 Bft)
20.09.2008 11:25 16,6 C 66 % 1031,5 hPa 0,0 l/m 14,1 km/h (3 Bft) W-NW 300 0 min 0 W/m 10,2 C 13,4 C 14,1 km/h (3 Bft)
20.09.2008 11:30 16,6 C 64 % 1031,5 hPa 0,0 l/m 12,8 km/h (3 Bft) W 270 0 min 0 W/m 9,8 C 13,8 C 12,8 km/h (3 Bft)
20.09.2008 11:35 16,3 C 66 % 1031,5 hPa 0,0 l/m 12,9 km/h (3 Bft) W 270 0 min 0 W/m 9,9 C 13,4 C 12,9 km/h (3 Bft)
20.09.2008 11:40 16,4 C 66 % 1031,5 hPa 0,0 l/m 16,8 km/h (3 Bft) W-NW 290 0 min 0 W/m 10,0 C 12,4 C 16,8 km/h (3 Bft)
20.09.2008 11:45 16,2 C 63 % 1030,5 hPa 0,0 l/m 11,5 km/h (2 Bft) W 270 0 min 0 W/m 9,1 C 13,8 C 11,5 km/h (2 Bft)
20.09.2008 11:50 16,2 C 64 % 1031,5 hPa 0,0 l/m 11,7 km/h (2 Bft) W 270 0 min 0 W/m 9,4 C 13,8 C 11,7 km/h (2 Bft)
20.09.2008 11:55 16,6 C 65 % 1030,5 hPa 0,0 l/m 15,5 km/h (3 Bft) NW 315 0 min 0 W/m 10,0 C 13,0 C 15,5 km/h (3 Bft)
20.09.2008 12:00 16,7 C 62 % 1030,5 hPa 0,0 l/m 11,9 km/h (2 Bft) NW 305 0 min 0 W/m 9,4 C 14,3 C 11,9 km/h (2 Bft)
20.09.2008 12:05 16,7 C 64 % 1030,5 hPa 0,0 l/m 14,5 km/h (3 Bft) W 275 0 min 0 W/m 9,9 C 13,4 C 14,5 km/h (3 Bft)
20.09.2008 12:10 16,7 C 63 % 1030,5 hPa 0,0 l/m 14,5 km/h (3 Bft) W 275 0 min 0 W/m 9,6 C 13,4 C 14,5 km/h (3 Bft)
20.09.2008 12:15 17,0 C 64 % 1030,5 hPa 0,0 l/m 16,5 km/h (3 Bft) W-NW 285 0 min 0 W/m 10,1 C 13,2 C 16,5 km/h (3 Bft)
20.09.2008 12:20 17,0 C 63 % 1030,5 hPa 0,0 l/m 16,0 km/h (3 Bft) W 270 0 min 0 W/m 9,9 C 13,3 C 16,0 km/h (3 Bft)
20.09.2008 12:25 16,8 C 64 % 1030,5 hPa 0,0 l/m 15,9 km/h (3 Bft) W 260 0 min 0 W/m 10,0 C 13,1 C 15,9 km/h (3 Bft)
20.09.2008 12:30 16,9 C 65 % 1030,5 hPa 0,0 l/m 12,1 km/h (2 Bft) W 280 0 min 0 W/m 10,3 C 14,4 C 12,1 km/h (2 Bft)
20.09.2008 12:35 17,2 C 64 % 1030,5 hPa 0,0 l/m 8,8 km/h (2 Bft) W-NW 290 0 min 0 W/m 10,3 C 16,0 C 8,8 km/h (2 Bft)
20.09.2008 12:40 17,2 C 63 % 1030,5 hPa 0,0 l/m 11,8 km/h (2 Bft) W 270 0 min 0 W/m 10,1 C 14,9 C 11,8 km/h (2 Bft)
20.09.2008 12:45 17,1 C 63 % 1030,5 hPa 0,0 l/m 13,2 km/h (3 Bft) W 275 0 min 0 W/m 10,0 C 14,3 C 13,2 km/h (3 Bft)
20.09.2008 12:50 16,9 C 63 % 1030,5 hPa 0,0 l/m 17,5 km/h (3 Bft) W 260 0 min 0 W/m 9,8 C 12,8 C 17,5 km/h (3 Bft)
20.09.2008 12:55 16,6 C 64 % 1030,5 hPa 0,0 l/m 15,6 km/h (3 Bft) W-NW 295 0 min 0 W/m 9,8 C 13,0 C 15,6 km/h (3 Bft)
20.09.2008 13:00 16,9 C 64 % 1030,5 hPa 0,0 l/m 14,1 km/h (3 Bft) W 265 0 min 0 W/m 10,0 C 13,8 C 14,1 km/h (3 Bft)
20.09.2008 13:05 17,0 C 63 % 1030,5 hPa 0,0 l/m 13,2 km/h (3 Bft) W 280 0 min 0 W/m 9,9 C 14,2 C 13,2 km/h (3 Bft)
20.09.2008 13:10 17,0 C 64 % 1030,5 hPa 0,0 l/m 13,9 km/h (3 Bft) W-NW 300 0 min 0 W/m 10,1 C 13,9 C 13,9 km/h (3 Bft)
20.09.2008 13:15 17,3 C 64 % 1030,5 hPa 0,0 l/m 12,7 km/h (3 Bft) W-NW 295 0 min 0 W/m 10,4 C 14,7 C 12,7 km/h (3 Bft)
20.09.2008 13:20 17,5 C 63 % 1030,5 hPa 0,0 l/m 16,3 km/h (3 Bft) W-NW 295 0 min 0 W/m 10,4 C 13,9 C 16,3 km/h (3 Bft)
20.09.2008 13:25 17,6 C 62 % 1030,5 hPa 0,0 l/m 12,8 km/h (3 Bft) NW 310 0 min 0 W/m 10,2 C 15,0 C 12,8 km/h (3 Bft)
20.09.2008 13:30 18,0 C 63 % 1030,5 hPa 0,0 l/m 11,9 km/h (2 Bft) NW 315 0 min 0 W/m 10,8 C 15,8 C 11,9 km/h (2 Bft)
20.09.2008 13:35 17,8 C 61 % 1030,5 hPa 0,0 l/m 17,1 km/h (3 Bft) W-NW 300 0 min 0 W/m 10,2 C 14,0 C 17,1 km/h (3 Bft)
20.09.2008 13:40 17,4 C 62 % 1030,5 hPa 0,0 l/m 17,3 km/h (3 Bft) W-NW 295 0 min 0 W/m 10,0 C 13,5 C 17,3 km/h (3 Bft)
20.09.2008 13:45 17,0 C 64 % 1030,5 hPa 0,0 l/m 13,0 km/h (3 Bft) W-NW 285 0 min 0 W/m 10,1 C 14,2 C 13,0 km/h (3 Bft)
20.09.2008 13:50 17,0 C 64 % 1030,5 hPa 0,0 l/m 14,5 km/h (3 Bft) W-NW 290 0 min 0 W/m 10,1 C 13,8 C 14,5 km/h (3 Bft)
20.09.2008 13:55 17,2 C 64 % 1030,5 hPa 0,0 l/m 14,3 km/h (3 Bft) W-NW 295 0 min 0 W/m 10,3 C 14,1 C 14,3 km/h (3 Bft)
20.09.2008 14:00 17,2 C 64 % 1030,5 hPa 0,0 l/m 14,0 km/h (3 Bft) W-NW 295 0 min 0 W/m 10,3 C 14,2 C 14,0 km/h (3 Bft)
20.09.2008 14:05 17,3 C 64 % 1030,5 hPa 0,0 l/m 16,0 km/h (3 Bft) W-NW 285 0 min 0 W/m 10,4 C 13,7 C 16,0 km/h (3 Bft)
20.09.2008 14:10 17,6 C 64 % 1030,5 hPa 0,0 l/m 14,3 km/h (3 Bft) W-NW 300 0 min 0 W/m 10,7 C 14,5 C 14,3 km/h (3 Bft)
20.09.2008 14:15 17,5 C 63 % 1030,5 hPa 0,0 l/m 16,8 km/h (3 Bft) W 275 0 min 0 W/m 10,4 C 13,7 C 16,8 km/h (3 Bft)
20.09.2008 14:20 17,7 C 63 % 1030,5 hPa 0,0 l/m 12,3 km/h (2 Bft) W-NW 295 0 min 0 W/m 10,6 C 15,3 C 12,3 km/h (2 Bft)
20.09.2008 14:25 17,7 C 63 % 1030,5 hPa 0,0 l/m 14,2 km/h (3 Bft) W-NW 300 0 min 0 W/m 10,6 C 14,7 C 14,2 km/h (3 Bft)
20.09.2008 14:30 17,7 C 63 % 1030,5 hPa 0,0 l/m 17,8 km/h (3 Bft) NW 310 0 min 0 W/m 10,6 C 13,7 C 17,8 km/h (3 Bft)
20.09.2008 14:35 17,7 C 64 % 1030,5 hPa 0,0 l/m 12,1 km/h (2 Bft) W-NW 300 0 min 0 W/m 10,8 C 15,3 C 12,1 km/h (2 Bft)
20.09.2008 14:40 17,7 C 62 % 1030,5 hPa 0,0 l/m 15,2 km/h (3 Bft) NW 305 0 min 0 W/m 10,3 C 14,4 C 15,2 km/h (3 Bft)
20.09.2008 14:45 17,6 C 63 % 1030,5 hPa 0,0 l/m 12,6 km/h (3 Bft) NW 315 0 min 0 W/m 10,5 C 15,1 C 12,6 km/h (3 Bft)
20.09.2008 14:50 17,7 C 63 % 1030,5 hPa 0,0 l/m 14,8 km/h (3 Bft) W-NW 285 0 min 0 W/m 10,6 C 14,5 C 14,8 km/h (3 Bft)
20.09.2008 14:55 17,5 C 63 % 1030,5 hPa 0,0 l/m 18,9 km/h (3 Bft) NW 305 0 min 0 W/m 10,4 C 13,2 C 18,9 km/h (3 Bft)
20.09.2008 15:00 17,2 C 65 % 1030,5 hPa 0,0 l/m 16,6 km/h (3 Bft) NW 310 0 min 0 W/m 10,6 C 13,4 C 16,6 km/h (3 Bft)
20.09.2008 15:05 17,2 C 65 % 1030,5 hPa 0,0 l/m 17,3 km/h (3 Bft) NW 305 0 min 0 W/m 10,6 C 13,2 C 17,3 km/h (3 Bft)
20.09.2008 15:10 17,4 C 65 % 1030,5 hPa 0,0 l/m 12,5 km/h (2 Bft) NW 305 0 min 0 W/m 10,8 C 14,9 C 12,5 km/h (2 Bft)
20.09.2008 15:15 17,2 C 65 % 1030,5 hPa 0,0 l/m 17,5 km/h (3 Bft) W 275 0 min 0 W/m 10,6 C 13,2 C 17,5 km/h (3 Bft)
20.09.2008 15:20 17,2 C 65 % 1030,5 hPa 0,0 l/m 11,5 km/h (2 Bft) NW 305 0 min 0 W/m 10,6 C 15,0 C 11,5 km/h (2 Bft)
20.09.2008 15:25 17,0 C 67 % 1030,5 hPa 0,0 l/m 17,1 km/h (3 Bft) NW 305 0 min 0 W/m 10,8 C 13,0 C 17,1 km/h (3 Bft)
20.09.2008 15:30 17,1 C 66 % 1030,5 hPa 0,0 l/m 14,0 km/h (3 Bft) NW 315 0 min 0 W/m 10,7 C 14,0 C 14,0 km/h (3 Bft)
20.09.2008 15:35 17,1 C 67 % 1030,5 hPa 0,0 l/m 13,6 km/h (3 Bft) W-NW 285 0 min 0 W/m 10,9 C 14,2 C 13,6 km/h (3 Bft)
20.09.2008 15:40 17,1 C 66 % 1030,5 hPa 0,0 l/m 17,3 km/h (3 Bft) W-NW 295 0 min 0 W/m 10,7 C 13,1 C 17,3 km/h (3 Bft)
20.09.2008 15:45 16,9 C 68 % 1030,5 hPa 0,0 l/m 13,3 km/h (3 Bft) W-NW 300 0 min 0 W/m 11,0 C 14,0 C 13,3 km/h (3 Bft)
20.09.2008 15:50 16,9 C 67 % 1029,5 hPa 0,0 l/m 17,1 km/h (3 Bft) W-NW 295 0 min 0 W/m 10,7 C 12,9 C 17,1 km/h (3 Bft)
20.09.2008 15:55 16,8 C 68 % 1029,5 hPa 0,0 l/m 16,3 km/h (3 Bft) NW 305 0 min 0 W/m 10,9 C 13,0 C 16,3 km/h (3 Bft)
20.09.2008 16:00 16,8 C 69 % 1029,5 hPa 0,0 l/m 14,0 km/h (3 Bft) NW 315 0 min 0 W/m 11,1 C 13,7 C 14,0 km/h (3 Bft)
20.09.2008 16:05 16,8 C 69 % 1029,5 hPa 0,0 l/m 12,5 km/h (2 Bft) W-NW 285 0 min 0 W/m 11,1 C 14,2 C 12,5 km/h (2 Bft)
20.09.2008 16:10 16,9 C 69 % 1029,5 hPa 0,0 l/m 12,5 km/h (2 Bft) W-NW 300 0 min 0 W/m 11,2 C 14,3 C 12,5 km/h (2 Bft)
20.09.2008 16:15 16,7 C 70 % 1029,5 hPa 0,0 l/m 13,2 km/h (3 Bft) W-NW 285 0 min 0 W/m 11,2 C 13,8 C 13,2 km/h (3 Bft)
20.09.2008 16:20 16,5 C 71 % 1029,5 hPa 0,0 l/m 15,3 km/h (3 Bft) NW 305 0 min 0 W/m 11,2 C 12,9 C 15,3 km/h (3 Bft)
20.09.2008 16:25 16,5 C 70 % 1029,5 hPa 0,0 l/m 15,6 km/h (3 Bft) W-NW 295 0 min 0 W/m 11,0 C 12,8 C 15,6 km/h (3 Bft)
20.09.2008 16:30 16,5 C 71 % 1029,5 hPa 0,0 l/m 14,5 km/h (3 Bft) NW 315 0 min 0 W/m 11,2 C 13,2 C 14,5 km/h (3 Bft)
20.09.2008 16:35 16,7 C 71 % 1029,5 hPa 0,0 l/m 9,2 km/h (2 Bft) NW 320 0 min 0 W/m 11,4 C 15,3 C 9,2 km/h (2 Bft)
20.09.2008 16:40 16,7 C 71 % 1029,5 hPa 0,0 l/m 11,3 km/h (2 Bft) NW 305 0 min 0 W/m 11,4 C 14,5 C 11,3 km/h (2 Bft)
20.09.2008 16:45 16,7 C 72 % 1029,5 hPa 0,0 l/m 10,3 km/h (2 Bft) W-NW 300 0 min 0 W/m 11,6 C 14,9 C 10,3 km/h (2 Bft)
20.09.2008 16:50 16,7 C 72 % 1029,5 hPa 0,0 l/m 12,9 km/h (3 Bft) W-NW 295 0 min 0 W/m 11,6 C 13,9 C 12,9 km/h (3 Bft)
20.09.2008 16:55 16,5 C 73 % 1029,5 hPa 0,0 l/m 12,1 km/h (2 Bft) NW 305 0 min 0 W/m 11,6 C 14,0 C 12,1 km/h (2 Bft)
20.09.2008 17:00 16,4 C 74 % 1029,5 hPa 0,0 l/m 11,6 km/h (2 Bft) NW 305 0 min 0 W/m 11,8 C 14,0 C 11,6 km/h (2 Bft)
20.09.2008 17:05 16,4 C 75 % 1029,5 hPa 0,0 l/m 11,8 km/h (2 Bft) W-NW 300 0 min 0 W/m 12,0 C 14,0 C 11,8 km/h (2 Bft)
20.09.2008 17:10 16,3 C 75 % 1029,5 hPa 0,0 l/m 11,2 km/h (2 Bft) W-NW 300 0 min 0 W/m 11,9 C 14,1 C 11,2 km/h (2 Bft)
20.09.2008 17:15 16,3 C 75 % 1029,5 hPa 0,0 l/m 9,4 km/h (2 Bft) W-NW 285 0 min 0 W/m 11,9 C 14,8 C 9,4 km/h (2 Bft)
20.09.2008 17:20 16,3 C 77 % 1029,5 hPa 0,0 l/m 12,6 km/h (3 Bft) W-NW 285 0 min 0 W/m 12,3 C 13,6 C 12,6 km/h (3 Bft)
20.09.2008 17:25 16,2 C 77 % 1029,5 hPa 0,0 l/m 9,4 km/h (2 Bft) NW 315 0 min 0 W/m 12,2 C 14,7 C 9,4 km/h (2 Bft)
20.09.2008 17:29 16,2 C 77 % 1029,5 hPa 0,0 l/m 7,2 km/h (2 Bft) W-NW 300 0 min 0 W/m 12,2 C 15,8 C 7,2 km/h (2 Bft)
20.09.2008 17:35 16,2 C 78 % 1029,5 hPa 0,0 l/m 6,8 km/h (2 Bft) W-NW 295 0 min 0 W/m 12,4 C 16,0 C 6,8 km/h (2 Bft)
20.09.2008 17:40 16,1 C 79 % 1029,5 hPa 0,0 l/m 9,2 km/h (2 Bft) W 270 0 min 0 W/m 12,5 C 14,7 C 9,2 km/h (2 Bft)
20.09.2008 17:45 16,1 C 79 % 1029,5 hPa 0,0 l/m 13,6 km/h (3 Bft) W-NW 295 0 min 0 W/m 12,5 C 13,0 C 13,6 km/h (3 Bft)
20.09.2008 17:50 16,0 C 80 % 1029,5 hPa 0,0 l/m 8,3 km/h (2 Bft) W-NW 300 0 min 0 W/m 12,5 C 15,0 C 8,3 km/h (2 Bft)
20.09.2008 17:55 15,9 C 80 % 1029,5 hPa 0,0 l/m 8,4 km/h (2 Bft) W-NW 295 0 min 0 W/m 12,5 C 14,8 C 8,4 km/h (2 Bft)
20.09.2008 18:00 15,9 C 80 % 1029,5 hPa 0,0 l/m 6,8 km/h (2 Bft) W-NW 290 0 min 0 W/m 12,5 C 15,7 C 6,8 km/h (2 Bft)
20.09.2008 18:05 15,9 C 81 % 1029,5 hPa 0,0 l/m 7,6 km/h (2 Bft) W-NW 300 0 min 0 W/m 12,6 C 15,3 C 7,6 km/h (2 Bft)
20.09.2008 18:10 15,8 C 80 % 1029,5 hPa 0,0 l/m 8,1 km/h (2 Bft) NW 320 0 min 0 W/m 12,4 C 14,9 C 8,1 km/h (2 Bft)
20.09.2008 18:15 15,9 C 81 % 1029,5 hPa 0,0 l/m 6,0 km/h (2 Bft) NW 315 0 min 0 W/m 12,6 C 15,9 C 6,0 km/h (2 Bft)
20.09.2008 18:20 15,8 C 80 % 1028,5 hPa 0,0 l/m 9,0 km/h (2 Bft) NW 310 0 min 0 W/m 12,4 C 14,5 C 9,0 km/h (2 Bft)
20.09.2008 18:25 15,8 C 81 % 1028,5 hPa 0,0 l/m 6,7 km/h (2 Bft) W-NW 300 0 min 0 W/m 12,5 C 15,6 C 6,7 km/h (2 Bft)
20.09.2008 18:30 15,8 C 81 % 1028,5 hPa 0,0 l/m 4,4 km/h (1 Bft) W-NW 300 0 min 0 W/m 12,5 C 15,8 C 4,4 km/h (1 Bft)
20.09.2008 18:35 15,9 C 80 % 1028,5 hPa 0,0 l/m 7,9 km/h (2 Bft) NW 325 0 min 0 W/m 12,5 C 15,1 C 7,9 km/h (2 Bft)
20.09.2008 18:40 15,8 C 81 % 1028,5 hPa 0,0 l/m 8,5 km/h (2 Bft) W-NW 285 0 min 0 W/m 12,5 C 14,7 C 8,5 km/h (2 Bft)
20.09.2008 18:45 15,8 C 82 % 1028,5 hPa 0,0 l/m 10,1 km/h (2 Bft) W-NW 300 0 min 0 W/m 12,7 C 14,0 C 10,1 km/h (2 Bft)
20.09.2008 18:50 15,6 C 82 % 1028,5 hPa 0,0 l/m 4,1 km/h (1 Bft) W-NW 295 0 min 0 W/m 12,5 C 15,6 C 4,1 km/h (1 Bft)
20.09.2008 18:55 15,6 C 81 % 1029,5 hPa 0,0 l/m 6,3 km/h (2 Bft) NW 305 0 min 0 W/m 12,3 C 15,6 C 6,3 km/h (2 Bft)
20.09.2008 19:00 15,5 C 82 % 1029,5 hPa 0,0 l/m 8,3 km/h (2 Bft) W-NW 285 0 min 0 W/m 12,4 C 14,5 C 8,3 km/h (2 Bft)
20.09.2008 19:05 15,4 C 82 % 1028,5 hPa 0,0 l/m 5,6 km/h (2 Bft) W-NW 295 0 min 0 W/m 12,3 C 15,4 C 5,6 km/h (2 Bft)
20.09.2008 19:10 15,4 C 82 % 1028,5 hPa 0,0 l/m 2,1 km/h (1 Bft) W 275 0 min 0 W/m 12,3 C 15,4 C 2,1 km/h (1 Bft)
20.09.2008 19:15 15,2 C 81 % 1028,5 hPa 0,0 l/m 6,7 km/h (2 Bft) NW 315 0 min 0 W/m 12,0 C 15,0 C 6,7 km/h (2 Bft)
20.09.2008 19:20 15,0 C 81 % 1028,5 hPa 0,0 l/m 5,0 km/h (1 Bft) W-NW 300 0 min 0 W/m 11,8 C 15,0 C 5,0 km/h (1 Bft)
20.09.2008 19:25 15,0 C 82 % 1028,5 hPa 0,0 l/m 4,2 km/h (1 Bft) NW 305 0 min 0 W/m 12,0 C 15,0 C 4,2 km/h (1 Bft)
20.09.2008 19:30 15,0 C 82 % 1028,5 hPa 0,0 l/m 3,9 km/h (1 Bft) W-NW 300 0 min 0 W/m 12,0 C 15,0 C 3,9 km/h (1 Bft)
20.09.2008 19:35 14,9 C 82 % 1028,5 hPa 0,0 l/m 4,5 km/h (1 Bft) NW 310 0 min 0 W/m 11,9 C 14,9 C 4,5 km/h (1 Bft)
20.09.2008 19:40 14,8 C 83 % 1028,5 hPa 0,0 l/m 4,2 km/h (1 Bft) NW 310 0 min 0 W/m 11,9 C 14,8 C 4,2 km/h (1 Bft)
20.09.2008 19:45 14,9 C 83 % 1028,5 hPa 0,0 l/m 1,3 km/h (1 Bft) W-NW 285 0 min 0 W/m 12,0 C 14,9 C 1,3 km/h (1 Bft)
20.09.2008 19:50 14,8 C 82 % 1028,5 hPa 0,0 l/m 3,3 km/h (1 Bft) W-NW 285 0 min 0 W/m 11,8 C 14,8 C 3,3 km/h (1 Bft)
20.09.2008 19:55 14,7 C 82 % 1028,5 hPa 0,0 l/m 0,1 km/h (0 Bft) W-NW 285 0 min 0 W/m 11,7 C 14,7 C 0,1 km/h (0 Bft)
20.09.2008 20:00 14,6 C 81 % 1028,5 hPa 0,0 l/m 0,1 km/h (0 Bft) W-NW 285 0 min 0 W/m 11,4 C 14,6 C 0,1 km/h (0 Bft)
20.09.2008 20:05 14,3 C 81 % 1028,5 hPa 0,0 l/m 0,0 km/h (0 Bft) W-NW 285 0 min 0 W/m 11,1 C 14,3 C 0,0 km/h (0 Bft)
20.09.2008 20:10 14,1 C 82 % 1028,5 hPa 0,0 l/m 0,0 km/h (0 Bft) W-NW 285 0 min 0 W/m 11,1 C 14,1 C 0,0 km/h (0 Bft)
20.09.2008 20:15 14,1 C 82 % 1028,5 hPa 0,0 l/m 0,0 km/h (0 Bft) W-NW 285 0 min 0 W/m 11,1 C 14,1 C 0,0 km/h (0 Bft)
20.09.2008 20:20 14,0 C 82 % 1028,5 hPa 0,0 l/m 0,0 km/h (0 Bft) W-NW 285 0 min 0 W/m 11,0 C 14,0 C 0,0 km/h (0 Bft)
20.09.2008 20:25 14,0 C 82 % 1028,5 hPa 0,0 l/m 0,0 km/h (0 Bft) W-NW 285 0 min 0 W/m 11,0 C 14,0 C 0,0 km/h (0 Bft)
20.09.2008 20:30 14,0 C 82 % 1028,5 hPa 0,0 l/m 0,0 km/h (0 Bft) W-NW 285 0 min 0 W/m 11,0 C 14,0 C 0,0 km/h (0 Bft)
20.09.2008 20:35 14,1 C 82 % 1028,5 hPa 0,0 l/m 0,0 km/h (0 Bft) W-NW 285 0 min 0 W/m 11,1 C 14,1 C 0,0 km/h (0 Bft)
20.09.2008 20:40 14,0 C 82 % 1028,5 hPa 0,0 l/m 0,0 km/h (0 Bft) W-NW 285 0 min 0 W/m 11,0 C 14,0 C 0,0 km/h (0 Bft)
20.09.2008 20:45 13,7 C 81 % 1029,5 hPa 0,0 l/m 0,0 km/h (0 Bft) W-NW 285 0 min 0 W/m 10,5 C 13,7 C 0,0 km/h (0 Bft)
20.09.2008 20:50 13,6 C 82 % 1029,5 hPa 0,0 l/m 0,0 km/h (0 Bft) W-NW 285 0 min 0 W/m 10,6 C 13,6 C 0,0 km/h (0 Bft)
20.09.2008 20:55 13,5 C 82 % 1029,5 hPa 0,0 l/m 1,1 km/h (1 Bft) NW 325 0 min 0 W/m 10,5 C 13,5 C 1,1 km/h (1 Bft)
20.09.2008 21:00 13,4 C 82 % 1029,5 hPa 0,0 l/m 0,3 km/h (0 Bft) N-NW 340 0 min 0 W/m 10,4 C 13,4 C 0,3 km/h (0 Bft)
20.09.2008 21:05 13,3 C 82 % 1029,5 hPa 0,0 l/m 0,0 km/h (0 Bft) N-NW 340 0 min 0 W/m 10,3 C 13,3 C 0,0 km/h (0 Bft)
20.09.2008 21:10 13,2 C 82 % 1029,5 hPa 0,0 l/m 0,3 km/h (0 Bft) N-NW 340 0 min 0 W/m 10,2 C 13,2 C 0,3 km/h (0 Bft)
20.09.2008 21:15 13,2 C 83 % 1029,5 hPa 0,0 l/m 3,7 km/h (1 Bft) N 350 0 min 0 W/m 10,4 C 13,2 C 3,7 km/h (1 Bft)
20.09.2008 21:20 13,1 C 83 % 1029,5 hPa 0,0 l/m 8,7 km/h (2 Bft) N 10 0 min 0 W/m 10,3 C 11,7 C 8,7 km/h (2 Bft)
20.09.2008 21:25 13,1 C 84 % 1029,5 hPa 0,0 l/m 6,3 km/h (2 Bft) N 10 0 min 0 W/m 10,5 C 13,1 C 6,3 km/h (2 Bft)
20.09.2008 21:30 13,2 C 85 % 1029,5 hPa 0,0 l/m 5,6 km/h (2 Bft) N 10 0 min 0 W/m 10,7 C 13,2 C 5,6 km/h (2 Bft)
20.09.2008 21:35 13,2 C 85 % 1029,5 hPa 0,0 l/m 6,8 km/h (2 Bft) N 10 0 min 0 W/m 10,7 C 13,0 C 6,8 km/h (2 Bft)
20.09.2008 21:40 13,2 C 85 % 1029,5 hPa 0,0 l/m 7,2 km/h (2 Bft) N-NO 25 0 min 0 W/m 10,7 C 12,7 C 7,2 km/h (2 Bft)
20.09.2008 21:45 13,3 C 86 % 1029,5 hPa 0,0 l/m 3,7 km/h (1 Bft) N 10 0 min 0 W/m 11,0 C 13,3 C 3,7 km/h (1 Bft)
20.09.2008 21:49 13,2 C 86 % 1029,5 hPa 0,0 l/m 3,4 km/h (1 Bft) N 10 0 min 0 W/m 10,9 C 13,2 C 3,4 km/h (1 Bft)
20.09.2008 21:55 13,2 C 86 % 1029,5 hPa 0,0 l/m 3,8 km/h (1 Bft) N 10 0 min 0 W/m 10,9 C 13,2 C 3,8 km/h (1 Bft)
20.09.2008 22:00 13,1 C 86 % 1029,5 hPa 0,0 l/m 5,2 km/h (1 Bft) N-NO 20 0 min 0 W/m 10,8 C 13,1 C 5,2 km/h (1 Bft)
20.09.2008 22:05 13,0 C 86 % 1029,5 hPa 0,0 l/m 1,5 km/h (1 Bft) N 10 0 min 0 W/m 10,7 C 13,0 C 1,5 km/h (1 Bft)
20.09.2008 22:10 13,1 C 86 % 1029,5 hPa 0,0 l/m 4,0 km/h (1 Bft) N 5 0 min 0 W/m 10,8 C 13,1 C 4,0 km/h (1 Bft)
20.09.2008 22:15 13,1 C 86 % 1029,5 hPa 0,0 l/m 0,5 km/h (0 Bft) N 360 0 min 0 W/m 10,8 C 13,1 C 0,5 km/h (0 Bft)
20.09.2008 22:20 13,0 C 86 % 1029,5 hPa 0,0 l/m 0,3 km/h (0 Bft) N 360 0 min 0 W/m 10,7 C 13,0 C 0,3 km/h (0 Bft)
20.09.2008 22:25 13,0 C 86 % 1029,5 hPa 0,0 l/m 0,0 km/h (0 Bft) N 360 0 min 0 W/m 10,7 C 13,0 C 0,0 km/h (0 Bft)
20.09.2008 22:30 12,9 C 86 % 1029,5 hPa 0,0 l/m 0,4 km/h (0 Bft) N 360 0 min 0 W/m 10,6 C 12,9 C 0,4 km/h (0 Bft)
20.09.2008 22:35 12,9 C 86 % 1029,5 hPa 0,0 l/m 0,2 km/h (0 Bft) N 360 0 min 0 W/m 10,6 C 12,9 C 0,2 km/h (0 Bft)
20.09.2008 22:40 12,9 C 86 % 1029,5 hPa 0,0 l/m 0,0 km/h (0 Bft) N 360 0 min 0 W/m 10,6 C 12,9 C 0,0 km/h (0 Bft)
20.09.2008 22:45 12,9 C 86 % 1029,5 hPa 0,0 l/m 0,0 km/h (0 Bft) N 360 0 min 0 W/m 10,6 C 12,9 C 0,0 km/h (0 Bft)
20.09.2008 22:50 12,9 C 86 % 1029,5 hPa 0,0 l/m 0,0 km/h (0 Bft) N 360 0 min 0 W/m 10,6 C 12,9 C 0,0 km/h (0 Bft)
20.09.2008 22:55 12,9 C 87 % 1029,5 hPa 0,0 l/m 0,0 km/h (0 Bft) N 360 0 min 0 W/m 10,8 C 12,9 C 0,0 km/h (0 Bft)
20.09.2008 23:00 12,9 C 86 % 1029,5 hPa 0,0 l/m 0,0 km/h (0 Bft) N 360 0 min 0 W/m 10,6 C 12,9 C 0,0 km/h (0 Bft)
20.09.2008 23:05 12,8 C 86 % 1029,5 hPa 0,0 l/m 0,0 km/h (0 Bft) N 360 0 min 0 W/m 10,5 C 12,8 C 0,0 km/h (0 Bft)
20.09.2008 23:10 12,8 C 86 % 1028,5 hPa 0,0 l/m 0,0 km/h (0 Bft) N 360 0 min 0 W/m 10,5 C 12,8 C 0,0 km/h (0 Bft)
20.09.2008 23:15 12,8 C 86 % 1028,5 hPa 0,0 l/m 0,0 km/h (0 Bft) N 360 0 min 0 W/m 10,5 C 12,8 C 0,0 km/h (0 Bft)
20.09.2008 23:20 12,8 C 86 % 1028,5 hPa 0,0 l/m 0,0 km/h (0 Bft) N 360 0 min 0 W/m 10,5 C 12,8 C 0,0 km/h (0 Bft)
20.09.2008 23:25 12,8 C 86 % 1028,5 hPa 0,0 l/m 0,1 km/h (0 Bft) N 360 0 min 0 W/m 10,5 C 12,8 C 0,1 km/h (0 Bft)
20.09.2008 23:30 12,7 C 86 % 1028,5 hPa 0,0 l/m 0,0 km/h (0 Bft) N 360 0 min 0 W/m 10,4 C 12,7 C 0,0 km/h (0 Bft)
20.09.2008 23:35 12,6 C 85 % 1028,5 hPa 0,0 l/m 0,0 km/h (0 Bft) N 360 0 min 0 W/m 10,1 C 12,6 C 0,0 km/h (0 Bft)
20.09.2008 23:40 12,5 C 85 % 1028,5 hPa 0,0 l/m 0,0 km/h (0 Bft) N 360 0 min 0 W/m 10,0 C 12,5 C 0,0 km/h (0 Bft)
20.09.2008 23:45 12,4 C 85 % 1028,5 hPa 0,0 l/m 0,0 km/h (0 Bft) N 360 0 min 0 W/m 9,9 C 12,4 C 0,0 km/h (0 Bft)
20.09.2008 23:50 12,3 C 85 % 1028,5 hPa 0,0 l/m 0,0 km/h (0 Bft) N 360 0 min 0 W/m 9,9 C 12,3 C 0,0 km/h (0 Bft)
20.09.2008 23:55 12,3 C 85 % 1028,5 hPa 0,0 l/m 0,0 km/h (0 Bft) N 360 0 min 0 W/m 9,9 C 12,3 C 0,0 km/h (0 Bft)
_ Min-Zeit 06:55 13:35 18:20 - 00:00 - - - - 06:55 06:55 00:00
Minimum _ 5,4 C 61 % 1028,5 hPa - 0,0 km/h (0 Bft) - - - - 3,3 C 5,4 C 0,0 km/h (0 Bft)
_ Max-Zeit 13:30 08:10 11:10 00:00 14:55 - - 00:00 00:00 18:45 12:35 14:55
Maximum _ 18,0 C 92 % 1031,5 hPa 0,0 l/m 18,9 km/h
NW (3 Bft)
- - 0 min 0 W/m 12,7 C 16,0 C 18,9 km/h
NW (3 Bft)
Durchschnitt _ 12,5 C 79 % 1029,7 hPa #0,0 l/m 5,2 km/h (1 Bft) W-NW - #0 min. 0 W/m 8,8 C 11,5 C 5,2 km/h (1 Bft)
copyright by Holger Just